Overview Statistics Trail Chart Weather Telemetry Raw packets
 

This is the latest recevied weather packets stored in our database for station/object OE6JUE. If no packets are shown the sender has not sent any weather packets the latest 10 day(s).

<< 12 13 14 15 16 17 18 >>
Time Temp. Humidity Pressure Rain* Wind** Luminosity Snow
1788602339 25° C 46% 1021.7 hPa 0 mm - - -
1788602038 24.44° C 48% 1021.6 hPa 0 mm - - -
1788601738 24.44° C 45% 1021.6 hPa 0 mm - - -
1788601438 25° C 44% 1021.7 hPa 0 mm - - -
1788601138 25° C 47% 1021.6 hPa 0 mm - - -
1788600838 25° C 48% 1021.8 hPa 0 mm - - -
1788600538 24.44° C 49% 1021.7 hPa 0 mm - - -
1788600238 23.89° C 51% 1021.7 hPa 0 mm - - -
1788599938 23.33° C 50% 1021.5 hPa 0 mm - - -
1788599638 23.33° C 51% 1021.4 hPa 0 mm - - -
1788599338 23.33° C 52% 1021.3 hPa 0 mm - - -
1788599038 23.33° C 53% 1021.2 hPa 0 mm - - -
1788598738 23.33° C 53% 1021.2 hPa 0 mm - - -
1788598439 23.33° C 58% 1021.1 hPa 0 mm - - -
1788598138 22.78° C 61% 1021.1 hPa 0 mm - - -
1788597838 22.78° C 63% 1021 hPa 0 mm - - -
1788597538 22.22° C 66% 1020.9 hPa 0 mm - - -
1788597238 21.67° C 67% 1020.6 hPa 0 mm - - -
1788596938 21.67° C 69% 1020.8 hPa 0 mm - - -
1788596638 21.67° C 71% 1020.6 hPa 0 mm - - -
1788596338 21.67° C 73% 1020.6 hPa 0 mm - - -
1788596037 21.11° C 74% 1020.4 hPa 0 mm - - -
1788595738 21.11° C 75% 1020.1 hPa 0 mm - - -
1788595438 21.11° C 75% 1020 hPa 0 mm - - -
1788595138 21.11° C 75% 1020.1 hPa 0 mm - - -

* Rain latest hour (hover to see other rain measurements)
** Current wind speed in m/s (hover to see current wind gust speed)